Vorticity
nan nan nan nan nan nan nan nan nan nan nan nan nan nan nan nan nan nan nan nan nan nan nan nan nan nan nan nan nan nan nan nan nan nan nan nan nan nan nan nan nan nan nan nan
nan 15 12 9 9 10 8 5 3 2 5 12 12 13 10 6 8 7 7 9 10 9 8 11 10 8 7 9 9 9 9 10 9 9 9 10 9 10 11 10 10 11 10 nan
nan 9 14 22 24 16 9 15 13 10 11 9 11 10 8 8 6 7 8 10 11 9 11 11 10 7 7 9 9 9 10 9 9 9 9 10 10 9 9 11 10 10 10 nan
nan 12 9 12 19 21 17 13 9 2 9 8 7 9 10 12 8 8 9 9 11 11 12 12 9 8 8 8 9 9 10 9 8 9 9 9 10 9 10 11 11 10 9 nan
nan 6 7 15 16 15 11 14 19 7 4 6 13 11 12 15 14 9 8 11 12 13 12 10 8 8 8 8 8 8 8 9 9 9 10 9 9 10 11 11 10 10 10 nan
nan 9 9 8 7 12 7 14 21 15 13 12 11 6 9 16 12 9 9 10 11 11 12 10 9 9 8 8 8 8 9 10 10 9 9 10 9 10 10 10 11 10 9 nan
nan 7 8 12 9 7 11 12 12 13 10 11 8 4 7 9 7 10 8 9 10 9 9 10 10 9 8 7 9 9 10 10 10 9 10 11 9 10 9 9 10 9 10 nan
nan 8 13 13 13 7 7 9 7 7 8 9 6 8 8 6 10 11 11 11 10 8 8 9 9 8 8 9 10 10 11 10 10 10 11 10 9 9 9 10 10 10 12 nan
nan 2 5 6 6 6 3 7 6 4 8 12 11 11 10 9 12 14 15 12 10 8 8 7 7 8 9 9 10 11 10 10 11 10 9 9 10 11 11 11 11 10 10 nan
nan 8 4 5 10 8 5 6 6 6 9 9 9 9 9 9 12 15 16 13 9 7 7 8 9 9 9 8 10 10 10 10 10 10 10 12 12 12 10 9 10 10 9 nan
nan 7 13 11 9 5 7 9 9 9 7 6 11 9 9 11 13 18 15 11 7 8 9 8 8 9 9 10 10 10 10 10 11 11 10 12 13 11 9 9 6 5 6 nan
nan 9 8 4 5 6 9 8 9 9 10 13 11 10 10 12 19 20 13 9 8 9 8 8 8 9 10 11 11 10 9 9 9 9 10 11 11 14 14 11 6 6 7 nan
nan 8 11 15 12 11 11 10 11 13 13 11 10 12 12 18 20 14 10 9 9 9 8 8 8 9 10 12 12 11 9 9 10 8 8 9 11 10 13 18 14 11 14 nan
nan 13 13 14 13 13 14 14 14 14 13 13 13 15 21 19 13 11 9 10 10 8 8 8 9 9 12 12 10 10 12 13 11 10 9 8 9 12 12 8 12 16 16 nan
nan 12 16 14 13 14 15 16 15 14 13 16 19 21 19 12 9 10 10 11 8 8 8 9 9 11 11 9 9 10 13 11 9 11 12 10 10 10 10 11 11 10 12 nan
nan 11 12 15 18 20 22 21 18 13 14 18 19 19 13 11 9 10 10 9 7 7 10 11 10 10 9 8 10 13 12 10 8 11 12 12 10 9 11 11 11 11 10 nan
nan 9 11 9 11 16 21 23 21 20 21 24 23 17 13 11 9 8 10 10 10 9 7 9 10 10 9 8 11 11 11 10 13 15 11 11 8 9 11 11 11 11 11 nan
nan 6 6 7 7 9 12 15 15 15 17 17 16 12 12 10 10 11 10 10 11 11 10 11 12 11 9 8 11 12 11 11 12 11 11 11 10 11 11 10 11 10 11 nan
nan 7 8 8 9 11 9 10 11 10 9 10 10 8 7 8 10 9 11 10 8 9 11 13 12 9 8 11 12 11 10 9 10 12 12 12 12 11 11 9 10 11 11 nan
nan 10 9 10 11 10 10 13 12 10 10 12 10 9 10 10 11 13 11 10 9 10 11 12 10 9 11 14 13 10 10 10 10 12 12 12 12 11 10 11 11 11 11 nan
nan 11 10 11 11 12 14 11 10 12 14 13 11 10 10 10 11 11 10 11 13 11 11 11 10 10 12 12 12 12 11 11 12 12 12 12 13 12 11 12 12 12 11 nan
nan 12 11 10 10 10 10 10 12 15 13 11 12 11 11 12 13 13 11 9 12 13 11 11 10 10 10 12 12 11 11 12 13 13 12 11 11 11 12 11 12 12 13 nan
nan 11 12 12 11 11 11 11 12 12 12 12 11 13 14 13 12 12 14 16 9 9 11 11 11 10 11 12 11 11 12 13 13 12 12 11 11 11 11 10 11 13 12 nan
nan 11 12 13 13 12 10 11 13 13 14 14 14 14 11 14 16 15 12 10 10 9 11 10 10 11 13 12 11 12 12 13 13 13 12 12 12 11 11 11 12 12 9 nan
nan 11 11 8 10 12 12 13 14 15 13 12 14 17 18 19 13 10 12 11 11 12 12 13 12 12 12 11 12 12 12 12 12 13 13 13 11 10 11 12 12 11 11 nan
nan 13 12 12 14 12 13 13 12 10 13 16 15 16 16 14 13 11 11 11 11 12 12 12 12 12 12 12 12 12 12 12 13 12 11 12 11 11 12 13 11 11 13 nan
nan nan nan nan nan nan nan nan nan nan nan nan nan nan nan nan nan nan nan nan nan nan nan nan nan nan nan nan nan nan nan nan nan nan nan nan nan nan nan nan nan nan nan nan
CAPE
0 0 0 0 0 0 0 0 0 0 0 0 0 0 0 0 0 0 0 0 0 0 0 0 0 0 0 0 0 0 0 0 0 0 0 3 4 1 0 3 6 6 11 5
0 0 0 0 0 0 0 0 0 0 0 0 0 0 0 0 0 0 0 0 0 0 0 0 0 0 0 0 0 0 0 0 0 0 0 1 5 1 0 1 3 10 11 10
0 0 0 0 0 0 0 0 0 0 0 0 0 0 0 0 0 0 0 0 0 0 0 0 0 0 0 0 0 0 0 0 0 0 0 0 4 2 2 2 5 7 10 6
0 0 0 0 0 0 0 0 0 0 0 0 0 0 0 2 0 0 0 0 0 0 0 0 0 0 0 0 0 0 0 0 0 0 0 0 2 4 5 8 9 10 10 6
0 0 0 0 0 0 0 0 0 0 0 0 0 0 0 13 0 0 0 0 0 0 0 0 0 0 0 0 0 0 0 0 0 0 0 0 2 8 7 7 5 4 8 11
0 0 0 0 0 0 0 0 0 0 0 0 0 0 0 0 0 0 0 0 0 0 0 0 0 0 0 0 0 0 0 0 1 2 0 1 6 8 6 3 4 3 4 10
0 0 0 0 0 0 0 0 0 0 0 0 0 4 7 0 0 0 0 0 0 0 0 0 0 0 0 0 0 0 0 0 0 3 2 2 4 4 4 5 5 5 5 6
0 0 0 0 0 0 0 0 0 0 0 0 0 0 0 0 0 0 0 0 0 0 0 0 0 0 0 0 0 0 0 0 0 3 3 2 5 5 3 3 5 6 7 7
0 0 0 0 0 0 0 0 0 0 0 0 0 0 0 0 0 1 0 0 0 0 0 0 0 0 0 0 0 0 0 0 0 0 1 3 5 5 3 2 9 6 4 10
0 0 0 0 0 0 0 0 0 0 0 0 0 0 0 0 0 0 0 0 0 0 0 0 0 0 0 0 0 0 0 0 1 2 4 4 5 2 7 5 4 11 17 16
0 0 0 0 0 0 0 0 0 0 0 0 0 0 0 0 0 0 0 0 0 0 0 0 0 0 0 0 0 0 0 0 0 2 4 7 7 17 19 17 18 20 18 18
0 0 0 0 0 0 0 0 0 0 0 0 0 0 0 0 0 0 0 0 0 0 0 0 0 0 0 0 0 0 0 0 1 3 5 7 15 14 6 0 1 0 0 0
0 0 0 0 0 0 0 0 0 0 0 0 0 0 0 0 0 0 0 0 0 0 0 0 0 0 0 0 0 0 1 1 3 2 5 13 13 12 19 14 3 0 0 0
0 0 0 0 0 0 0 0 0 0 0 0 0 0 0 0 0 0 0 0 0 0 0 0 0 0 0 0 1 3 7 1 7 19 24 22 11 22 18 23 17 15 7 0
4 4 5 3 0 0 0 0 0 0 0 0 0 0 0 0 0 0 0 0 0 0 0 0 0 0 0 0 1 4 3 11 21 30 39 32 27 22 25 25 22 19 14 5
11 10 1 0 1 6 0 0 0 0 0 0 0 0 0 0 0 0 0 0 0 0 0 0 0 0 0 1 3 5 8 5 4 8 9 26 31 26 28 29 29 30 28 23
12 3 7 4 5 3 2 0 0 0 0 0 0 0 0 0 0 0 0 0 0 0 0 0 0 0 0 3 8 14 8 7 4 8 9 29 34 23 36 37 35 35 35 25
0 0 0 1 3 4 8 21 12 4 1 0 0 0 0 0 0 0 0 0 0 0 0 0 0 0 1 3 2 4 10 11 6 14 13 23 26 30 41 40 40 39 39 29
0 0 0 0 0 0 0 0 1 2 0 0 0 0 0 0 0 0 0 0 0 0 0 0 0 0 1 0 0 3 6 8 7 10 19 27 29 31 44 42 41 43 40 34
0 0 0 0 0 0 0 0 0 0 0 0 0 0 0 0 0 0 0 0 0 0 0 0 0 1 0 0 0 5 6 8 6 7 19 23 35 42 42 28 37 38 39 41
0 0 0 0 0 0 0 0 0 0 0 0 0 0 0 0 0 0 0 0 0 0 0 0 0 0 0 1 5 8 10 10 11 11 21 26 35 37 42 43 45 45 43 41
0 0 0 0 0 0 0 0 0 0 0 0 0 0 0 0 0 0 0 0 0 0 0 0 0 0 0 0 2 4 5 4 7 18 17 28 33 31 30 35 38 39 39 43
0 0 0 0 0 0 0 0 0 0 0 0 1 2 2 2 0 1 1 0 0 0 0 0 0 0 0 1 3 2 1 1 4 13 22 24 25 24 25 35 37 35 49 28
0 0 0 0 0 0 0 0 0 0 0 0 0 0 1 5 5 0 0 0 0 0 0 0 0 0 0 1 2 1 1 2 5 12 17 12 20 24 25 34 32 44 35 24
0 0 0 0 0 0 0 0 0 2 2 3 3 3 0 2 4 3 2 0 0 0 0 0 0 0 0 1 1 2 2 3 6 17 16 21 25 25 27 29 28 36 30 32
0 0 0 0 2 6 6 10 12 10 3 3 4 4 2 3 2 1 0 0 0 0 0 0 0 0 0 0 1 1 2 3 8 13 17 22 23 21 24 21 38 27 23 22
0 0 0 3 3 5 9 7 10 7 12 5 5 2 1 1 0 0 0 0 0 0 0 0 0 0 0 1 1 3 4 6 7 6 13 19 11 19 28 21 22 22 15 11